[[{"header":{"parameterUnit":"m.s-1","parameterCategory":1,"la1":30.2992,"la2":30.254,"lo1":-89.0895,"lo2":-89.0443,"dy":0.0025,"dx":0.0025,"nx":19,"ny":19,"refTime":"2026-03-22T03:00:00:Z","depth":0,"parameterNumber":2,"parameterNumberName":"U-component_of_WINDS"},"data":[0,0,0,4.0437,4.044,4.0601,4.0601,4.082,4.0822,0,0,0,0,0,0,0,0,0,0,0,4.0398,4.04,4.0436,4.0441,4.06,4.0601,4.082,4.0822,0,0,0,0,0,0,0,0,0,0,0,4.0397,4.0399,4.0401,4.0441,4.06,4.0601,4.0819,4.0693,0,0,0,0,0,0,0,0,0,0,4.0535,4.0508,4.0399,4.0401,4.0442,4.06,4.0601,4.0687,4.0701,4.0754,0,4.0802,0,4.0816,4.0838,4.0838,0,0,0,4.0434,4.0496,4.0532,4.0402,4.0444,4.06,4.0526,4.0695,4.0711,4.0772,4.0805,4.0813,4.082,4.0839,4.084,4.1164,4.1165,0,0,4.0425,4.0431,4.0521,4.0542,4.0519,4.0521,4.0532,4.0704,4.0741,4.0806,4.0818,4.0823,4.0841,4.0842,4.1162,4.1164,0,0,0,4.0404,4.0425,4.0456,4.0534,4.0562,4.0526,4.0538,4.0733,4.0742,4.082,4.0826,4.0842,4.0845,4.116,4.1163,4.1257,0,0,0,4.0399,4.0413,4.0453,4.0458,4.0559,4.0649,4.0563,4.073,4.075,4.0825,4.0842,4.0847,4.1158,4.1161,4.125,4.1301,0,0,0,4.0384,4.0411,4.0437,4.0458,4.0527,4.0646,4.0666,4.0734,4.0754,4.0839,4.0848,4.1157,4.1161,4.1244,4.1291,4.1387,0,0,0,4.0371,4.052,4.0439,4.0607,4.0526,4.0704,4.0664,4.0797,4.0881,4.0843,4.1158,4.1162,4.1242,4.1284,4.138,4.1468,4.1505,0,0,4.0562,4.0543,4.0641,4.0574,4.0768,4.0679,4.0887,4.0959,4.0962,4.1096,4.1104,4.1253,4.129,4.1385,4.1715,4.1745,0,0,0,4.0704,4.0774,4.0825,4.0905,4.0964,4.1018,4.1057,4.1084,4.1197,4.1032,4.1314,4.1336,4.1392,4.1433,4.1459,4.1505,4.1182,4.1182,4.1181,4.0982,4.0977,4.114,4.1155,4.1234,4.1273,4.1336,4.1378,4.1351,4.1418,4.1457,4.1658,4.1707,4.1726,4.1775,4.1504,4.1505,4.1505,4.1505,4.126,4.1359,4.1319,4.1462,4.1457,4.1577,4.1621,4.1598,4.1709,4.1628,4.1677,4.1587,4.1759,4.1801,4.1512,4.1511,4.151,4.151,4.1509,4.144,4.1486,4.1517,4.1633,4.1723,4.1733,4.1841,4.1833,4.1826,4.1874,4.1914,4.1913,4.1909,4.1894,4.1895,4.1896,4.1896,4.1897,4.1897,4.1614,4.1645,4.1738,4.1813,4.1863,4.1929,4.197,4.202,4.2072,4.2057,4.2057,4.2023,4.1777,4.1714,4.1908,4.1906,4.1905,4.1904,4.1903,4.1896,4.1831,4.1974,4.2024,4.2112,4.2201,4.2189,4.2291,4.2331,4.2384,4.234,4.216,4.2139,4.2119,4.2067,4.2341,4.2341,4.2341,4.2341,4.2047,4.2036,4.218,4.2261,4.2341,4.2345,4.2506,4.254,4.2564,4.2588,4.2548,4.2479,4.2459,4.245,4.2423,4.2374,4.272,4.272,4.2721,4.2219,4.2216,4.2354,4.2378,4.2445,4.2504,4.2655,4.275,4.2764,4.2736,4.2607,4.2591,4.2479,4.2443,4.2411,4.2368,4.2279,0,0]},{"header":{"parameterUnit":"m.s-1","parameterCategory":1,"la1":30.2992,"la2":30.254,"lo1":-89.0895,"lo2":-89.0443,"dy":0.0025,"dx":0.0025,"nx":19,"ny":19,"refTime":"2026-03-22T03:00:00:Z","depth":0,"parameterNumber":3,"parameterNumberName":"V-component_of_WINDS"},"data":[0,0,0,3.9111,3.9115,3.9336,3.9337,3.9611,3.9614,0,0,0,0,0,0,0,0,0,0,0,3.9042,3.9044,3.911,3.9116,3.9336,3.9337,3.9611,3.9614,0,0,0,0,0,0,0,0,0,0,0,3.9041,3.9043,3.9045,3.9117,3.9336,3.9337,3.961,3.9446,0,0,0,0,0,0,0,0,0,0,3.9233,3.9167,3.9043,3.9046,3.9118,3.9336,3.9337,3.9439,3.9457,3.9508,0,3.9555,0,3.9589,3.9632,3.9633,0,0,0,3.9118,3.9152,3.9215,3.9046,3.912,3.9335,3.9237,3.9449,3.9469,3.9532,3.9559,3.9569,3.9593,3.9633,3.9635,3.9929,3.993,0,0,3.9106,3.908,3.92,3.9228,3.9195,3.923,3.9244,3.9461,3.9488,3.956,3.9576,3.9598,3.9635,3.9637,3.9928,3.993,0,0,0,3.9069,3.9071,3.9128,3.9216,3.9256,3.9237,3.9253,3.9478,3.9499,3.9579,3.9601,3.9637,3.964,3.9927,3.9929,3.9967,0,0,0,3.9062,3.905,3.9123,3.9109,3.9252,3.937,3.9265,3.9484,3.9509,3.96,3.9637,3.9643,3.9925,3.9928,3.9963,3.9989,0,0,0,3.9029,3.9046,3.9077,3.9107,3.9201,3.9368,3.9401,3.949,3.9523,3.9633,3.9643,3.9924,3.9927,3.9959,3.9984,4.006,0,0,0,3.8985,3.9107,3.9077,3.9221,3.9199,3.939,3.94,3.9543,3.9641,3.9638,3.9926,3.9928,3.9958,3.998,4.0056,4.012,4.0144,0,0,3.9124,3.9123,3.921,3.9189,3.9379,3.9358,3.9553,3.9667,3.9701,3.9851,3.9858,3.9964,3.9983,4.0059,4.0286,4.0305,0,0,0,3.9245,3.9307,3.9363,3.9456,3.9547,3.9627,3.9715,3.9757,3.9886,3.9773,4.0013,4.0025,4.007,4.0102,4.0118,4.0159,3.9942,3.9941,3.9941,3.9404,3.9442,3.9588,3.9652,3.9742,3.9831,3.9907,3.9979,3.999,4.0046,4.0091,4.0224,4.0261,4.0273,4.0315,4.0127,4.0127,4.0127,4.0127,3.9611,3.9706,3.9717,3.9864,3.9902,4.0025,4.0115,4.0118,4.0237,4.0194,4.0235,4.0185,4.0293,4.0331,4.0131,4.013,4.013,4.0129,4.0129,3.972,3.9772,3.9822,3.9961,4.0063,4.0123,4.0237,4.0268,4.0297,4.0338,4.0389,4.0388,4.0392,4.036,4.036,4.0361,4.0361,4.0362,4.0362,3.9814,3.9869,3.9963,4.0069,4.0133,4.0221,4.0311,4.0374,4.0452,4.0465,4.0465,4.047,4.0296,4.0252,4.0369,4.0368,4.0367,4.0366,4.0366,4.0011,3.9972,4.0116,4.018,4.0308,4.0407,4.0444,4.057,4.0627,4.0682,4.0678,4.0544,4.0545,4.0532,4.0496,4.0669,4.0669,4.0669,4.0669,4.0104,4.0107,4.0262,4.0362,4.0464,4.0512,4.0672,4.0743,4.081,4.0847,4.0826,4.078,4.0766,4.0775,4.0757,4.0724,4.0952,4.0952,4.0952,4.0228,4.0242,4.0374,4.044,4.0542,4.0628,4.078,4.0894,4.0961,4.0964,4.0877,4.0865,4.0791,4.0765,4.0767,4.0739,4.0678,0,0]}]]